| time (UTC) | temp F | wind direction | speed knots | gust knots | rain 1hr in | rain 24hr in | rain mn in | humidity % | barometer mb |
| 20260903200126 | 76 | 236 | 13.9 | 8.7 | 0.00 | 0.00 | 0.00 | 12 | |
| 20260903195628 | 76 | 243 | 11.3 | 13.0 | 0.00 | 0.00 | 0.00 | 12 | |
| 20260903195131 | 75 | 273 | 11.3 | 3.5 | 0.00 | 0.00 | 0.00 | 12 | |
| 20260903194633 | 75 | 215 | 11.3 | 14.8 | 0.00 | 0.00 | 0.00 | 13 | |
| 20260903194135 | 75 | 224 | 13.9 | 19.1 | 0.00 | 0.00 | 0.00 | 13 | |
| 20260903193638 | 75 | 205 | 12.2 | 9.6 | 0.00 | 0.00 | 0.00 | 13 | |
| 20260903193137 | 75 | 232 | 11.3 | 15.6 | 0.00 | 0.00 | 0.00 | 13 | |
| 20260903192639 | 75 | 221 | 13.9 | 13.9 | 0.00 | 0.00 | 0.00 | 13 | |
| 20260903192141 | 75 | 203 | 8.7 | 11.3 | 0.00 | 0.00 | 0.00 | 13 | |
| 20260903191643 | 74 | 246 | 13.0 | 0.0 | 0.00 | 0.00 | 0.00 | 13 | |
| 20260903191146 | 74 | 235 | 14.8 | 13.9 | 0.00 | 0.00 | 0.00 | 13 | |
| 20260903190648 | 74 | 210 | 8.7 | 3.5 | 0.00 | 0.00 | 0.00 | 14 | |
| 20260903190147 | 73 | 215 | 13.0 | 12.2 | 0.00 | 0.00 | 0.00 | 14 | |
| 20260903185650 | 73 | 239 | 14.8 | 7.8 | 0.00 | 0.00 | 0.00 | 14 | |
| 20260903185152 | 73 | 217 | 9.6 | 14.8 | 0.00 | 0.00 | 0.00 | 15 | |
| 20260903184654 | 73 | 219 | 15.6 | 15.6 | 0.00 | 0.00 | 0.00 | 14 | |
| 20260903184156 | 73 | 226 | 11.3 | 14.8 | 0.00 | 0.00 | 0.00 | 14 | |
| 20260903183659 | 72 | 191 | 10.4 | 5.2 | 0.00 | 0.00 | 0.00 | 15 | |
| 20260903183158 | 72 | 201 | 13.0 | 13.9 | 0.00 | 0.00 | 0.00 | 15 | |
| 20260903182700 | 72 | 208 | 13.9 | 10.4 | 0.00 | 0.00 | 0.00 | 15 | |
| 20260903182202 | 72 | 194 | 8.7 | 0.0 | 0.00 | 0.00 | 0.00 | 15 | |
| 20260903181241 | 72 | 218 | 13.0 | 5.2 | 0.00 | 0.00 | 0.00 | 15 | |
| 20260903181207 | 72 | 218 | 13.0 | 5.2 | 0.00 | 0.00 | 0.00 | 15 | |
| 20260903180709 | 71 | 217 | 12.2 | 15.6 | 0.00 | 0.00 | 0.00 | 15 | |
| 20260903180208 | 71 | 215 | 10.4 | 9.6 | 0.00 | 0.00 | 0.00 | 16 | |
| 20260903175710 | 70 | 210 | 13.0 | 7.0 | 0.00 | 0.00 | 0.00 | 15 | |
| 20260903175213 | 70 | 219 | 9.6 | 11.3 | 0.00 | 0.00 | 0.00 | 14 | |
| 20260903174715 | 70 | 231 | 10.4 | 11.3 | 0.00 | 0.00 | 0.00 | 14 | |
| 20260903174217 | 70 | 243 | 7.0 | 9.6 | 0.00 | 0.00 | 0.00 | 14 | |
| 20260903173219 | 69 | 208 | 12.2 | 9.6 | 0.00 | 0.00 | 0.00 | 14 | |
| 20260903172721 | 69 | 212 | 11.3 | 16.5 | 0.00 | 0.00 | 0.00 | 15 | |
| 20260903172223 | 69 | 226 | 11.3 | 2.6 | 0.00 | 0.00 | 0.00 | 14 | |
| 20260903171726 | 69 | 238 | 7.0 | 12.2 | 0.00 | 0.00 | 0.00 | 15 | |
| 20260903171228 | 68 | 217 | 6.1 | 11.3 | 0.00 | 0.00 | 0.00 | 16 | |
| 20260903170731 | 68 | 181 | 2.6 | 13.9 | 0.00 | 0.00 | 0.00 | 17 | |
| 20260903170229 | 68 | 204 | 10.4 | 15.6 | 0.00 | 0.00 | 0.00 | 18 | |
| 20260903165731 | 67 | 214 | 10.4 | 9.6 | 0.00 | 0.00 | 0.00 | 20 | |
| 20260903165234 | 67 | 215 | 8.7 | 13.9 | 0.00 | 0.00 | 0.00 | 21 | |
| 20260903164737 | 67 | 211 | 13.9 | 13.9 | 0.00 | 0.00 | 0.00 | 23 | |
| 20260903164238 | 66 | 226 | 10.4 | 14.8 | 0.00 | 0.00 | 0.00 | 25 | |
| 20260903163741 | 66 | 207 | 11.3 | 10.4 | 0.00 | 0.00 | 0.00 | 26 | |
| 20260903163240 | 65 | 233 | 11.3 | 12.2 | 0.00 | 0.00 | 0.00 | 27 | |
| 20260903162743 | 65 | 225 | 8.7 | 12.2 | 0.00 | 0.00 | 0.00 | 29 | |
| 20260903162244 | 65 | 198 | 8.7 | 12.2 | 0.00 | 0.00 | 0.00 | 30 | |
| 20260903161747 | 64 | 219 | 9.6 | 15.6 | 0.00 | 0.00 | 0.00 | 32 | |
| 20260903161249 | 64 | 201 | 7.8 | 12.2 | 0.00 | 0.00 | 0.00 | 33 | |
| 20260903160751 | 64 | 215 | 8.7 | 13.0 | 0.00 | 0.00 | 0.00 | 34 | |
| 20260903160250 | 64 | 215 | 11.3 | 10.4 | 0.00 | 0.00 | 0.00 | 35 | |
| 20260903155753 | 63 | 218 | 10.4 | 13.9 | 0.00 | 0.00 | 0.00 | 37 | |
| 20260903155255 | 63 | 217 | 10.4 | 11.3 | 0.00 | 0.00 | 0.00 | 38 | |
| 20260903154757 | 63 | 214 | 12.2 | 10.4 | 0.00 | 0.00 | 0.00 | 39 | |
| 20260903153803 | 62 | 238 | 9.6 | 7.0 | 0.00 | 0.00 | 0.00 | 39 | |
| 20260903153301 | 62 | 160 | 5.2 | 2.6 | 0.00 | 0.00 | 0.00 | 41 | |
| 20260903152803 | 61 | 231 | 10.4 | 13.9 | 0.00 | 0.00 | 0.00 | 41 | |
| 20260903152307 | 61 | 226 | 10.4 | 7.8 | 0.00 | 0.00 | 0.00 | 41 | |
| 20260903151808 | 61 | 233 | 8.7 | 10.4 | 0.00 | 0.00 | 0.00 | 41 | |
| 20260903151311 | 60 | 208 | 9.6 | 3.5 | 0.00 | 0.00 | 0.00 | 41 | |
| 20260903150813 | 60 | 240 | 7.0 | 5.2 | 0.00 | 0.00 | 0.00 | 42 | |
| 20260903150312 | 59 | 229 | 9.6 | 13.9 | 0.00 | 0.00 | 0.00 | 42 | |
| 20260903145814 | 59 | 214 | 1.7 | 0.0 | 0.00 | 0.00 | 0.00 | 45 | |
| 20260903145316 | 58 | 212 | 2.6 | 0.0 | 0.00 | 0.00 | 0.00 | 46 | |
| 20260903144818 | 58 | 176 | 7.0 | 0.0 | 0.00 | 0.00 | 0.00 | 46 | |
| 20260903144321 | 57 | 203 | 8.7 | 12.2 | 0.00 | 0.00 | 0.00 | 48 | |
| 20260903143823 | 57 | 211 | 7.0 | 0.0 | 0.00 | 0.00 | 0.00 | 49 | |
| 20260903143322 | 56 | 207 | 6.1 | 7.8 | 0.00 | 0.00 | 0.00 | 50 | |
| 20260903142824 | 56 | 301 | 0.9 | 1.7 | 0.00 | 0.00 | 0.00 | 51 | |
| 20260903141829 | 55 | 232 | 10.4 | 11.3 | 0.00 | 0.00 | 0.00 | 52 | |
| 20260903141331 | 55 | 217 | 1.7 | 4.3 | 0.00 | 0.00 | 0.00 | 53 | |
| 20260903140333 | 55 | 246 | 1.7 | 0.0 | 0.00 | 0.00 | 0.00 | 54 | |
| 20260903135835 | 54 | 239 | 2.6 | 2.6 | 0.00 | 0.00 | 0.00 | 55 | |
| 20260903135337 | 54 | 180 | 0.9 | 1.7 | 0.00 | 0.00 | 0.00 | 55 | |
| 20260903134839 | 54 | 222 | 0.0 | 0.0 | 0.00 | 0.00 | 0.00 | 55 | |
| 20260903134342 | 54 | 172 | 1.7 | 1.7 | 0.00 | 0.00 | 0.00 | 55 | |
| 20260903133844 | 54 | 207 | 3.5 | 4.3 | 0.00 | 0.00 | 0.00 | 55 | |
| 20260903133343 | 54 | 208 | 3.5 | 1.7 | 0.00 | 0.00 | 0.00 | 55 | |
| 20260903132845 | 54 | 222 | 3.5 | 2.6 | 0.00 | 0.00 | 0.00 | 54 | |
| 20260903132348 | 54 | 212 | 2.6 | 5.2 | 0.00 | 0.00 | 0.00 | 54 | |
| 20260903131850 | 54 | 138 | 2.6 | 1.7 | 0.00 | 0.00 | 0.00 | 53 | |
| 20260903131352 | 54 | 188 | 0.9 | 0.0 | 0.00 | 0.00 | 0.00 | 53 | |
| 20260903130854 | 54 | 207 | 1.7 | 3.5 | 0.00 | 0.00 | 0.00 | 53 | |
| 20260903130354 | 54 | 248 | 1.7 | 1.7 | 0.00 | 0.00 | 0.00 | 53 | |
| 20260903125856 | 54 | 187 | 0.9 | 0.9 | 0.00 | 0.00 | 0.00 | 52 | |
| 20260903125358 | 54 | 198 | 1.7 | 2.6 | 0.00 | 0.00 | 0.00 | 52 | |
| 20260903124901 | 57 | 246 | 2.6 | 0.0 | 0.00 | 0.00 | 0.00 | 52 | |
| 20260903124403 | 54 | 256 | 0.9 | 0.0 | 0.00 | 0.00 | 0.00 | 52 | |
| 20260903123905 | 54 | 203 | 11.3 | 11.3 | 0.00 | 0.00 | 0.00 | 52 | |
| 20260903123404 | 54 | 232 | 11.3 | 11.3 | 0.00 | 0.00 | 0.00 | 52 | |
| 20260903122906 | 54 | 226 | 7.0 | 8.7 | 0.00 | 0.00 | 0.00 | 52 | |
| 20260903122409 | 54 | 235 | 11.3 | 10.4 | 0.00 | 0.00 | 0.00 | 51 | |
| 20260903121911 | 54 | 218 | 12.2 | 11.3 | 0.00 | 0.00 | 0.00 | 51 | |
| 20260903121413 | 54 | 201 | 9.6 | 3.5 | 0.00 | 0.00 | 0.00 | 51 | |
| 20260903120915 | 54 | 232 | 8.7 | 12.2 | 0.00 | 0.00 | 0.00 | 51 | |
| 20260903120415 | 55 | 255 | 10.4 | 7.8 | 0.00 | 0.00 | 0.00 | 51 | |
| 20260903115917 | 55 | 229 | 9.6 | 13.0 | 0.00 | 0.00 | 0.00 | 50 | |
| 20260903115419 | 55 | 191 | 11.3 | 8.7 | 0.00 | 0.00 | 0.00 | 51 | |
| 20260903114921 | 55 | 217 | 12.2 | 10.4 | 0.00 | 0.00 | 0.00 | 51 | |
| 20260903114424 | 55 | 205 | 10.4 | 11.3 | 0.00 | 0.00 | 0.00 | 50 | |
| 20260903113926 | 55 | 219 | 12.2 | 12.2 | 0.00 | 0.00 | 0.00 | 50 | |
| 20260903113425 | 55 | 190 | 11.3 | 8.7 | 0.00 | 0.00 | 0.00 | 50 | |
| 20260903112927 | 56 | 224 | 9.6 | 10.4 | 0.00 | 0.00 | 0.00 | 50 | |
| 20260903112430 | 56 | 229 | 11.3 | 13.0 | 0.00 | 0.00 | 0.00 | 50 | |
| 20260903111932 | 55 | 207 | 9.6 | 14.8 | 0.00 | 0.00 | 0.00 | 50 | |
| 20260903111435 | 56 | 208 | 10.4 | 11.3 | 0.00 | 0.00 | 0.00 | 49 | |
| 20260903110936 | 56 | 211 | 11.3 | 11.3 | 0.00 | 0.00 | 0.00 | 50 | |
| 20260903105938 | 56 | 212 | 9.6 | 13.0 | 0.00 | 0.00 | 0.00 | 49 | |
| 20260903105440 | 56 | 232 | 7.8 | 7.8 | 0.00 | 0.00 | 0.00 | 49 | |
| 20260903104942 | 56 | 215 | 11.3 | 8.7 | 0.00 | 0.00 | 0.00 | 48 | |
| 20260903104445 | 56 | 224 | 8.7 | 11.3 | 0.00 | 0.00 | 0.00 | 48 | |
| 20260903103947 | 56 | 231 | 8.7 | 3.5 | 0.00 | 0.00 | 0.00 | 47 | |
| 20260903103446 | 56 | 205 | 4.3 | 5.2 | 0.00 | 0.00 | 0.00 | 47 | |
| 20260903102948 | 56 | 233 | 7.0 | 8.7 | 0.00 | 0.00 | 0.00 | 46 | |
| 20260903102524 | 56 | 233 | 9.6 | 5.2 | 0.00 | 0.00 | 0.00 | 46 | |
| 20260903102451 | 56 | 233 | 9.6 | 5.2 | 0.00 | 0.00 | 0.00 | 46 | |
| 20260903101953 | 56 | 218 | 7.0 | 9.6 | 0.00 | 0.00 | 0.00 | 45 | |
| 20260903101455 | 56 | 210 | 4.3 | 10.4 | 0.00 | 0.00 | 0.00 | 44 | |
| 20260903100957 | 56 | 210 | 7.0 | 8.7 | 0.00 | 0.00 | 0.00 | 43 | |
| 20260903100456 | 56 | 212 | 6.1 | 7.8 | 0.00 | 0.00 | 0.00 | 42 | |
| 20260903095959 | 57 | 215 | 4.3 | 7.0 | 0.00 | 0.00 | 0.00 | 42 | |
| 20260903095501 | 57 | 214 | 7.8 | 9.6 | 0.00 | 0.00 | 0.00 | 41 | |
| 20260903095004 | 57 | 219 | 7.8 | 6.1 | 0.00 | 0.00 | 0.00 | 41 | |
| 20260903094506 | 57 | 233 | 7.8 | 5.2 | 0.00 | 0.00 | 0.00 | 40 | |
| 20260903094008 | 57 | 249 | 8.7 | 7.0 | 0.00 | 0.00 | 0.00 | 40 | |
| 20260903093507 | 57 | 214 | 7.0 | 2.6 | 0.00 | 0.00 | 0.00 | 40 | |
| 20260903093009 | 57 | 229 | 7.8 | 11.3 | 0.00 | 0.00 | 0.00 | 40 | |
| 20260903092511 | 57 | 214 | 7.0 | 6.1 | 0.00 | 0.00 | 0.00 | 39 | |
| 20260903092046 | 58 | 218 | 7.8 | 10.4 | 0.00 | 0.00 | 0.00 | 39 | |
| 20260903092014 | 58 | 218 | 7.8 | 10.4 | 0.00 | 0.00 | 0.00 | 39 | |
| 20260903091516 | 58 | 238 | 7.8 | 7.0 | 0.00 | 0.00 | 0.00 | 39 | |
| 20260903091019 | 58 | 249 | 8.7 | 7.0 | 0.00 | 0.00 | 0.00 | 38 | |
| 20260903090517 | 58 | 217 | 7.8 | 7.8 | 0.00 | 0.00 | 0.00 | 38 | |
| 20260903090020 | 58 | 221 | 7.0 | 6.1 | 0.00 | 0.00 | 0.00 | 37 | |
| 20260903085522 | 58 | 201 | 7.0 | 7.0 | 0.00 | 0.00 | 0.00 | 37 | |
| 20260903085024 | 58 | 242 | 6.1 | 5.2 | 0.00 | 0.00 | 0.00 | 37 | |
| 20260903084527 | 58 | 195 | 0.0 | 8.7 | 0.00 | 0.00 | 0.00 | 36 | |
| 20260903084029 | 58 | 228 | 0.9 | 0.0 | 0.00 | 0.00 | 0.00 | 36 | |
| 20260903083528 | 58 | 198 | 0.0 | 0.0 | 0.00 | 0.00 | 0.00 | 36 | |
| 20260903083030 | 58 | 198 | 0.9 | 1.7 | 0.00 | 0.00 | 0.00 | 35 | |
| 20260903082532 | 58 | 217 | 0.0 | 2.6 | 0.00 | 0.00 | 0.00 | 35 | |
| 20260903082037 | 58 | 273 | 0.9 | 2.6 | 0.00 | 0.00 | 0.00 | 34 | |
| 20260903082035 | 58 | 198 | 0.0 | 0.0 | 0.00 | 0.00 | 0.00 | 34 | |
| 20260903081537 | 58 | 273 | 0.9 | 2.6 | 0.00 | 0.00 | 0.00 | 34 | |
| 20260903081141 | 58 | 260 | 0.0 | 0.0 | 0.00 | 0.00 | 0.00 | 34 | |
| 20260903081039 | 58 | 260 | 0.0 | 0.0 | 0.00 | 0.00 | 0.00 | 34 | |
| 20260903080538 | 58 | 226 | 1.7 | 0.0 | 0.00 | 0.00 | 0.00 | 34 | |
| 20260903080231 | 58 | 222 | 0.0 | 0.0 | 0.00 | 0.00 | 0.00 | 34 | |
| 20260903080041 | 58 | 222 | 0.0 | 0.0 | 0.00 | 0.00 | 0.00 | 34 | |
| 20260903075543 | 58 | 240 | 0.9 | 2.6 | 0.00 | 0.00 | 0.00 | 35 | |
| 20260903075045 | 58 | 249 | 0.9 | 2.6 | 0.00 | 0.00 | 0.00 | 35 | |
| 20260903074547 | 58 | 153 | 0.0 | 0.0 | 0.00 | 0.00 | 0.00 | 35 | |
| 20260903074448 | 59 | 249 | 0.0 | 0.0 | 0.00 | 0.00 | 0.00 | 34 | |
| 20260903074050 | 59 | 249 | 0.0 | 0.0 | 0.00 | 0.00 | 0.00 | 34 | |
| 20260903073549 | 59 | 193 | 0.9 | 0.0 | 0.00 | 0.00 | 0.00 | 33 | |
| 20260903072553 | 58 | 219 | 3.5 | 4.3 | 0.00 | 0.00 | 0.00 | 31 | |
| 20260903072056 | 58 | 193 | 0.9 | 0.0 | 0.00 | 0.00 | 0.00 | 33 | |
| 20260903071558 | 58 | 207 | 2.6 | 4.3 | 0.00 | 0.00 | 0.00 | 34 | |
| 20260903071100 | 57 | 262 | 2.6 | 2.6 | 0.00 | 0.00 | 0.00 | 36 | |
| 20260903070559 | 57 | 146 | 0.9 | 0.9 | 0.00 | 0.00 | 0.00 | 38 | |
| 20260903065604 | 57 | 269 | 0.0 | 0.0 | 0.00 | 0.00 | 0.00 | 42 | |
| 20260903065106 | 57 | 269 | 0.0 | 0.0 | 0.00 | 0.00 | 0.00 | 42 | |
| 20260903064608 | 57 | 201 | 0.0 | 0.0 | 0.00 | 0.00 | 0.00 | 43 | |
| 20260903064111 | 57 | 201 | 0.0 | 0.0 | 0.00 | 0.00 | 0.00 | 43 | |
| 20260903063610 | 57 | 222 | 0.0 | 0.0 | 0.00 | 0.00 | 0.00 | 45 | |
| 20260903063112 | 57 | 222 | 0.0 | 0.0 | 0.00 | 0.00 | 0.00 | 45 | |
| 20260903062614 | 57 | 222 | 0.0 | 0.0 | 0.00 | 0.00 | 0.00 | 46 | |
| 20260903062116 | 57 | 191 | 0.9 | 0.0 | 0.00 | 0.00 | 0.00 | 47 | |
| 20260903061619 | 57 | 226 | 0.0 | 0.0 | 0.00 | 0.00 | 0.00 | 47 | |
| 20260903061121 | 57 | 226 | 0.0 | 0.0 | 0.00 | 0.00 | 0.00 | 46 | |
| 20260903060620 | 57 | 226 | 0.0 | 0.0 | 0.00 | 0.00 | 0.00 | 45 | |
| 20260903060122 | 57 | 226 | 0.0 | 0.0 | 0.00 | 0.00 | 0.00 | 45 | |
| 20260903055127 | 58 | 215 | 0.0 | 0.0 | 0.00 | 0.00 | 0.00 | 42 | |
| 20260903054629 | 58 | 215 | 0.0 | 0.0 | 0.00 | 0.00 | 0.00 | 40 | |
| 20260903054131 | 58 | 215 | 0.0 | 0.0 | 0.00 | 0.00 | 0.00 | 40 | |
| 20260903053630 | 58 | 215 | 0.0 | 0.0 | 0.00 | 0.00 | 0.00 | 40 | |
| 20260903052636 | 59 | 215 | 0.0 | 0.0 | 0.00 | 0.00 | 0.00 | 38 | |
| 20260903052137 | 59 | 215 | 0.0 | 0.0 | 0.00 | 0.00 | 0.00 | 36 | |
| 20260903051640 | 60 | 215 | 0.0 | 0.0 | 0.00 | 0.00 | 0.00 | 34 | |
| 20260903051142 | 60 | 215 | 0.0 | 0.0 | 0.00 | 0.00 | 0.00 | 32 | |
| 20260903050641 | 61 | 215 | 0.0 | 0.0 | 0.00 | 0.00 | 0.00 | 30 | |
| 20260903050143 | 61 | 215 | 0.0 | 0.0 | 0.00 | 0.00 | 0.00 | 27 | |
| 20260903045645 | 61 | 215 | 0.0 | 0.0 | 0.00 | 0.00 | 0.00 | 25 | |
| 20260903045148 | 61 | 215 | 0.0 | 0.0 | 0.00 | 0.00 | 0.00 | 24 | |
| 20260903044650 | 62 | 215 | 0.0 | 0.0 | 0.00 | 0.00 | 0.00 | 24 | |
| 20260903044152 | 62 | 215 | 0.0 | 0.0 | 0.00 | 0.00 | 0.00 | 24 | |
| 20260903043752 | 62 | 215 | 0.0 | 0.0 | 0.00 | 0.00 | 0.00 | 24 | |
| 20260903043651 | 62 | 215 | 0.0 | 0.0 | 0.00 | 0.00 | 0.00 | 24 | |
| 20260903043154 | 62 | 215 | 0.0 | 0.0 | 0.00 | 0.00 | 0.00 | 24 | |
| 20260903042656 | 62 | 215 | 0.0 | 0.0 | 0.00 | 0.00 | 0.00 | 23 | |
| 20260903042158 | 62 | 215 | 0.0 | 0.0 | 0.00 | 0.00 | 0.00 | 22 | |
| 20260903041700 | 62 | 215 | 0.0 | 0.0 | 0.00 | 0.00 | 0.00 | 19 | |
| 20260903041203 | 62 | 215 | 0.0 | 0.0 | 0.00 | 0.00 | 0.00 | 18 | |
| 20260903040702 | 63 | 215 | 0.0 | 0.0 | 0.00 | 0.00 | 0.00 | 18 | |
| 20260903040205 | 63 | 215 | 0.0 | 0.0 | 0.00 | 0.00 | 0.00 | 17 | |
| 20260903035706 | 63 | 215 | 0.0 | 0.0 | 0.00 | 0.00 | 0.00 | 15 | |
| 20260903035208 | 64 | 215 | 0.0 | 0.0 | 0.00 | 0.00 | 0.00 | 14 | |
| 20260903034711 | 64 | 215 | 0.0 | 0.0 | 0.00 | 0.00 | 0.00 | 13 | |
| 20260903034213 | 64 | 215 | 0.0 | 0.0 | 0.00 | 0.00 | 0.00 | 12 | |
| 20260903033712 | 65 | 215 | 0.0 | 0.0 | 0.00 | 0.00 | 0.00 | 11 | |
| 20260903033214 | 65 | 215 | 0.0 | 0.0 | 0.00 | 0.00 | 0.00 | 11 | |
| 20260903032717 | 65 | 215 | 0.0 | 0.0 | 0.00 | 0.00 | 0.00 | 9 | |
| 20260903032219 | 66 | 215 | 0.0 | 0.0 | 0.00 | 0.00 | 0.00 | 7 | |
| 20260903031721 | 66 | 215 | 0.0 | 0.0 | 0.00 | 0.00 | 0.00 | 6 | |
| 20260903031223 | 66 | 215 | 0.0 | 0.0 | 0.00 | 0.00 | 0.00 | 5 | |
| 20260903030723 | 67 | 215 | 0.0 | 0.0 | 0.00 | 0.00 | 0.00 | 5 | |
| 20260903030225 | 67 | 215 | 0.0 | 0.0 | 0.00 | 0.00 | 0.00 | 5 | |
| 20260903025727 | 67 | 215 | 0.0 | 0.0 | 0.00 | 0.00 | 0.00 | 5 | |
| 20260903025229 | 68 | 215 | 0.0 | 0.0 | 0.00 | 0.00 | 0.00 | 5 | |
| 20260903024234 | 68 | 215 | 0.0 | 0.0 | 0.00 | 0.00 | 0.00 | 5 | |
| 20260903023733 | 68 | 215 | 0.0 | 0.0 | 0.00 | 0.00 | 0.00 | 5 | |
| 20260903023235 | 68 | 215 | 0.0 | 0.0 | 0.00 | 0.00 | 0.00 | 5 | |
| 20260903022737 | 69 | 215 | 0.0 | 0.0 | 0.00 | 0.00 | 0.00 | 5 | |
| 20260903022239 | 70 | 215 | 0.0 | 0.0 | 0.00 | 0.00 | 0.00 | 4 | |
| 20260903021742 | 70 | 215 | 0.0 | 0.0 | 0.00 | 0.00 | 0.00 | 4 | |
| 20260903021244 | 71 | 215 | 0.0 | 0.0 | 0.00 | 0.00 | 0.00 | 4 | |
| 20260903020743 | 71 | 215 | 0.0 | 0.0 | 0.00 | 0.00 | 0.00 | 4 | |
| 20260903020245 | 71 | 215 | 0.0 | 0.0 | 0.00 | 0.00 | 0.00 | 3 | |
| 20260903015748 | 72 | 215 | 0.0 | 0.0 | 0.00 | 0.00 | 0.00 | 3 | |
| 20260903015250 | 72 | 215 | 0.0 | 0.0 | 0.00 | 0.00 | 0.00 | 4 | |
| 20260903014752 | 72 | 184 | 0.0 | 0.0 | 0.00 | 0.00 | 0.00 | 4 | |
| 20260903014254 | 72 | 184 | 0.0 | 0.0 | 0.00 | 0.00 | 0.00 | 4 | |
| 20260903013753 | 73 | 184 | 0.0 | 0.0 | 0.00 | 0.00 | 0.00 | 4 | |
| 20260903013256 | 73 | 204 | 8.7 | 12.2 | 0.00 | 0.00 | 0.00 | 4 | |
| 20260903012758 | 73 | 257 | 0.0 | 0.0 | 0.00 | 0.00 | 0.00 | 4 | |
| 20260903012300 | 74 | 257 | 0.0 | 0.0 | 0.00 | 0.00 | 0.00 | 4 | |
| 20260903011802 | 74 | 257 | 0.0 | 0.0 | 0.00 | 0.00 | 0.00 | 5 | |
| 20260903011305 | 74 | 187 | 0.0 | 0.0 | 0.00 | 0.00 | 0.00 | 5 | |
| 20260903010804 | 74 | 187 | 0.0 | 0.0 | 0.00 | 0.00 | 0.00 | 5 | |
| 20260903010306 | 74 | 187 | 0.0 | 0.0 | 0.00 | 0.00 | 0.00 | 5 | |
| 20260903005808 | 74 | 165 | 2.6 | 4.3 | 0.00 | 0.00 | 0.00 | 5 | |
| 20260903005310 | 74 | 198 | 8.7 | 0.0 | 0.00 | 0.00 | 0.00 | 5 | |
| 20260903004813 | 75 | 224 | 0.0 | 0.0 | 0.00 | 0.00 | 0.00 | 6 | |
| 20260903004315 | 75 | 204 | 0.9 | 0.0 | 0.00 | 0.00 | 0.00 | 6 | |
| 20260903003814 | 75 | 205 | 0.9 | 0.0 | 0.00 | 0.00 | 0.00 | 6 | |
| 20260903003317 | 75 | 219 | 0.0 | 0.0 | 0.00 | 0.00 | 0.00 | 6 | |
| 20260903002937 | 75 | 200 | 0.9 | 5.2 | 0.00 | 0.00 | 0.00 | 6 | |
| 20260903002819 | 75 | 200 | 0.9 | 5.2 | 0.00 | 0.00 | 0.00 | 6 | |
| 20260903002321 | 75 | 212 | 2.6 | 12.2 | 0.00 | 0.00 | 0.00 | 7 | |
| 20260903001823 | 75 | 203 | 7.0 | 6.1 | 0.00 | 0.00 | 0.00 | 9 | |
| 20260903001327 | 75 | 204 | 12.2 | 5.2 | 0.00 | 0.00 | 0.00 | 8 | |
| 20260903000824 | 76 | 194 | 3.5 | 7.0 | 0.00 | 0.00 | 0.00 | 8 | |
| 20260903000327 | 76 | 187 | 3.5 | 5.2 | 0.00 | 0.00 | 0.00 | 8 | |
| 20260902235829 | 76 | 194 | 7.8 | 14.8 | 0.00 | 0.00 | 0.00 | 7 | |
| 20260902235331 | 76 | 221 | 4.3 | 0.0 | 0.00 | 0.00 | 0.00 | 6 | |
| 20260902234833 | 76 | 194 | 7.8 | 0.0 | 0.00 | 0.00 | 0.00 | 7 | |
| 20260902233835 | 76 | 179 | 2.6 | 0.0 | 0.00 | 0.00 | 0.00 | 7 | |
| 20260902233337 | 77 | 187 | 12.2 | 7.8 | 0.00 | 0.00 | 0.00 | 6 | |
| 20260902232839 | 77 | 203 | 3.5 | 2.6 | 0.00 | 0.00 | 0.00 | 6 | |
| 20260902232341 | 77 | 200 | 4.3 | 0.0 | 0.00 | 0.00 | 0.00 | 6 | |
| 20260902231844 | 77 | 212 | 2.6 | 0.0 | 0.00 | 0.00 | 0.00 | 6 | |
| 20260902231346 | 77 | 214 | 1.7 | 0.0 | 0.00 | 0.00 | 0.00 | 6 | |
| 20260902230845 | 77 | 195 | 8.7 | 12.2 | 0.00 | 0.00 | 0.00 | 6 | |
| 20260902230347 | 78 | 194 | 1.7 | 0.0 | 0.00 | 0.00 | 0.00 | 6 | |
| 20260902225849 | 78 | 191 | 7.8 | 7.0 | 0.00 | 0.00 | 0.00 | 6 | |
| 20260902225352 | 78 | 193 | 9.6 | 7.8 | 0.00 | 0.00 | 0.00 | 6 | |
| 20260902224854 | 78 | 187 | 0.0 | 0.0 | 0.00 | 0.00 | 0.00 | 6 | |
| 20260902224356 | 78 | 203 | 3.5 | 0.0 | 0.00 | 0.00 | 0.00 | 5 | |
| 20260902223855 | 78 | 194 | 3.5 | 13.9 | 0.00 | 0.00 | 0.00 | 5 | |
| 20260902223358 | 78 | 193 | 3.5 | 2.6 | 0.00 | 0.00 | 0.00 | 6 | |
| 20260902222900 | 79 | 219 | 1.7 | 0.0 | 0.00 | 0.00 | 0.00 | 5 | |
| 20260902222402 | 79 | 177 | 1.7 | 5.2 | 0.00 | 0.00 | 0.00 | 5 | |
| 20260902221904 | 79 | 214 | 7.0 | 7.8 | 0.00 | 0.00 | 0.00 | 5 | |
| 20260902221406 | 79 | 177 | 0.9 | 0.0 | 0.00 | 0.00 | 0.00 | 5 | |
| 20260902220906 | 80 | 193 | 3.5 | 5.2 | 0.00 | 0.00 | 0.00 | 4 | |
| 20260902220408 | 80 | 218 | 2.6 | 5.2 | 0.00 | 0.00 | 0.00 | 5 | |
| 20260902215910 | 80 | 194 | 3.5 | 0.0 | 0.00 | 0.00 | 0.00 | 5 | |
| 20260902215412 | 80 | 204 | 3.5 | 0.0 | 0.00 | 0.00 | 0.00 | 4 | |
| 20260902214915 | 80 | 180 | 0.9 | 0.0 | 0.00 | 0.00 | 0.00 | 4 | |
| 20260902214417 | 80 | 203 | 0.9 | 0.0 | 0.00 | 0.00 | 0.00 | 4 | |
| 20260902213916 | 80 | 218 | 0.9 | 0.0 | 0.00 | 0.00 | 0.00 | 4 | |
| 20260902213418 | 80 | 173 | 0.9 | 7.0 | 0.00 | 0.00 | 0.00 | 4 | |
| 20260902212920 | 80 | 208 | 4.3 | 0.0 | 0.00 | 0.00 | 0.00 | 4 | |
| 20260902212423 | 80 | 228 | 0.0 | 0.0 | 0.00 | 0.00 | 0.00 | 4 | |
| 20260902211925 | 80 | 201 | 3.5 | 0.0 | 0.00 | 0.00 | 0.00 | 4 | |
| 20260902211427 | 80 | 233 | 1.7 | 4.3 | 0.00 | 0.00 | 0.00 | 4 | |
| 20260902210926 | 80 | 194 | 0.0 | 0.0 | 0.00 | 0.00 | 0.00 | 4 | |
| 20260902210428 | 80 | 191 | 0.0 | 0.0 | 0.00 | 0.00 | 0.00 | 4 | |
| 20260902205931 | 80 | 233 | 0.0 | 0.0 | 0.00 | 0.00 | 0.00 | 4 | |
| 20260902205433 | 80 | 174 | 3.5 | 1.7 | 0.00 | 0.00 | 0.00 | 4 | |
| 20260902204935 | 80 | 195 | 2.6 | 6.1 | 0.00 | 0.00 | 0.00 | 4 | |
| 20260902204438 | 79 | 217 | 0.0 | 3.5 | 0.00 | 0.00 | 0.00 | 4 | |
| 20260902203936 | 79 | 198 | 0.9 | 0.0 | 0.00 | 0.00 | 0.00 | 4 | |
| 20260902203439 | 79 | 239 | 1.7 | 7.8 | 0.00 | 0.00 | 0.00 | 4 | |
| 20260902202941 | 79 | 205 | 1.7 | 3.5 | 0.00 | 0.00 | 0.00 | 4 | |
| 20260902202443 | 79 | 165 | 0.0 | 0.0 | 0.00 | 0.00 | 0.00 | 5 | |
| 20260902201945 | 79 | 181 | 2.6 | 0.0 | 0.00 | 0.00 | 0.00 | 5 | |
| 20260902201448 | 79 | 233 | 0.9 | 4.3 | 0.00 | 0.00 | 0.00 | 4 | |
| 20260902200947 | 79 | 250 | 6.1 | 0.0 | 0.00 | 0.00 | 0.00 | 4 | |
| 20260902200449 | 78 | 255 | 0.0 | 0.0 | 0.00 | 0.00 | 0.00 | 4 |